Dewpoint
55 55 55 54 52 51 48 34 31 34 35 31 30 27 28 32 27 29 27 27 27 27 27 26 26 26 28 31 31 23 23 17 18 20 21 22 23 25 25 21 27 24 23 25
55 55 54 53 52 51 46 34 31 34 33 27 28 29 27 28 27 29 28 27 28 29 29 28 27 27 28 30 31 29 26 21 19 19 19 22 22 23 24 23 24 28 19 25
55 55 54 53 52 51 45 33 27 29 32 33 29 27 27 27 28 28 29 29 29 29 29 30 29 27 27 28 31 38 31 22 24 15 20 21 23 21 22 22 20 25 24 30
55 55 54 53 52 51 44 33 28 33 25 27 27 27 27 25 26 28 29 28 27 28 29 29 29 28 27 28 32 31 30 27 26 24 21 21 20 18 18 22 25 24 27 29
55 55 55 54 52 51 41 32 31 30 30 33 28 30 29 27 29 29 28 29 28 29 31 31 30 29 31 30 29 30 28 29 28 25 24 23 20 21 20 18 20 24 25 31
55 55 55 54 52 49 36 42 37 34 33 28 27 29 28 28 32 33 32 31 32 31 32 32 32 31 31 31 31 29 30 28 28 22 24 20 17 20 19 21 24 24 23 34
54 55 55 55 53 51 46 45 40 35 27 27 29 30 30 31 33 33 33 33 34 35 35 34 30 28 30 30 30 27 29 32 29 22 23 17 28 29 27 25 31 32 35 36
54 54 55 55 54 52 49 50 43 37 31 29 30 30 31 33 35 34 34 35 36 37 34 31 30 28 30 29 29 29 31 30 27 26 20 22 24 28 26 30 31 34 33 34
53 54 54 55 54 52 50 49 51 40 36 29 31 31 33 30 30 33 35 39 36 35 32 35 31 34 32 28 29 31 28 34 33 27 27 20 28 29 31 30 25 35 34 34
52 53 54 54 55 54 51 50 54 46 39 35 36 34 34 33 33 32 34 36 35 34 32 38 39 38 35 35 28 30 32 34 35 28 31 29 31 30 33 25 31 36 34 35
50 52 53 54 54 54 50 49 54 48 39 39 38 37 38 37 36 34 38 34 32 28 32 36 40 40 38 37 35 31 31 36 37 34 32 32 34 33 32 37 36 34 35 35
50 51 52 54 54 54 52 47 52 52 46 43 45 41 41 41 40 37 38 33 32 32 34 37 37 40 35 36 37 33 36 37 42 36 38 37 38 35 37 34 35 35 35 33
49 50 51 53 54 54 52 49 50 49 44 42 41 41 43 43 42 41 37 37 37 38 39 32 33 36 35 38 37 36 34 36 40 37 30 35 38 36 37 36 35 36 34 34
49 49 50 51 53 53 52 50 50 49 45 35 38 45 45 45 43 44 40 41 41 41 38 36 36 37 35 37 37 39 36 37 37 38 36 35 36 37 38 38 38 37 36 36
49 49 49 50 52 53 51 52 52 52 47 37 37 42 43 44 45 44 43 40 41 40 37 37 37 37 36 36 35 41 36 37 41 42 37 39 34 39 40 39 39 39 38 38
50 49 48 49 50 52 49 48 51 53 51 45 36 42 45 45 44 44 45 42 40 40 40 41 44 40 39 41 39 39 37 39 39 36 37 37 37 39 40 39 40 40 39 40
50 49 48 49 50 50 46 47 50 51 52 44 36 37 45 46 44 42 42 43 43 41 44 44 46 44 44 40 38 39 41 40 41 41 39 39 38 37 39 40 41 41 40 40
49 48 48 50 51 50 48 49 50 51 48 45 40 37 41 47 44 44 46 43 44 44 43 46 45 44 42 37 41 42 43 42 41 41 39 36 38 38 40 41 42 41 41 39
48 48 49 51 49 48 49 53 53 51 49 45 45 43 39 46 48 48 47 46 46 50 46 47 45 42 37 41 43 42 43 43 42 42 40 38 39 39 41 41 41 41 39 37
48 50 49 49 51 53 52 50 48 47 47 46 45 45 45 45 45 46 47 46 42 42 44 44 43 42 43 43 45 46 45 43 41 40 40 38 38 38 39 40 40 39 38 38
48 48 49 52 52 50 49 46 44 46 45 45 45 45 43 47 46 47 46 43 45 40 40 40 39 39 40 42 44 47 45 43 41 43 42 38 38 38 39 39 40 40 39 39
49 50 51 51 48 47 45 44 46 45 45 46 45 45 45 48 48 46 46 43 43 34 40 39 37 39 40 42 43 45 45 44 42 42 43 41 41 40 41 40 40 41 40 41
50 47 46 46 46 41 41 42 45 45 46 46 48 47 47 48 48 46 44 38 36 40 38 38 39 41 42 44 44 43 45 45 45 45 44 44 44 44 43 43 43 42 42 43
42 42 40 43 42 43 43 44 47 46 46 46 50 48 49 47 44 44 39 41 39 33 32 37 36 42 43 44 45 45 42 43 44 45 45 45 45 45 46 45 45 44 44 44
40 40 37 37 40 44 47 48 48 48 49 49 48 47 48 45 43 40 37 35 33 34 35 32 38 45 45 45 44 44 43 43 43 43 43 43 45 45 45 47 46 46 45 45
42 41 37 38 40 36 43 46 50 51 49 49 50 45 43 41 39 35 34 31 31 29 34 41 46 46 47 48 46 45 43 43 41 41 42 43 44 46 46 47 48 47 46 45
40 37 38 35 33 34 35 43 45 51 48 46 44 40 38 39 39 36 35 35 34 35 41 46 49 47 47 46 44 43 41 41 41 41 42 41 41 41 43 46 46 47 47 48
Lifted_Index
8 8 7 6 5 4 3 2 2 2 2 2 2 2 3 3 2 2 1 1 1 1 0 -0 -0 0 1 2 2 3 3 3 3 4 5 5 5 5 4 3 2 1 1 1
8 8 7 6 6 5 3 2 2 2 2 2 2 3 3 3 3 2 1 1 1 1 0 0 0 1 1 1 2 2 3 3 3 3 4 4 5 5 4 3 2 1 1 1
8 8 7 6 6 5 4 3 3 3 3 3 3 3 4 4 4 3 2 2 1 1 0 1 1 1 1 1 1 2 2 2 2 2 3 4 5 5 5 4 2 1 1 2
8 8 7 6 6 6 5 4 4 4 4 4 4 4 4 4 4 4 3 3 2 2 1 1 1 1 1 1 1 1 1 1 2 2 3 4 5 5 5 4 3 2 2 3
8 8 7 7 6 5 5 4 4 4 4 4 4 4 4 4 4 4 4 4 4 3 2 2 2 2 2 2 2 2 2 1 2 3 4 4 4 5 5 5 4 3 3 4
8 8 7 7 6 5 4 4 4 4 4 4 4 4 4 4 4 4 4 4 4 4 4 4 4 4 4 3 3 3 3 2 2 3 3 4 4 5 5 5 5 4 4 4
8 8 7 7 6 5 4 4 4 4 4 4 4 4 4 4 4 4 4 4 4 5 5 5 5 4 4 5 5 4 4 3 3 3 3 3 4 5 5 5 5 5 5 5
8 8 8 7 6 5 4 4 4 4 4 4 4 4 4 4 4 4 4 4 4 5 4 4 4 4 4 4 5 5 4 4 3 3 2 3 4 5 5 5 5 6 6 6
8 8 8 7 7 6 4 4 4 3 4 4 4 4 4 4 4 4 4 4 5 4 4 3 2 3 3 4 4 4 4 4 3 3 2 3 4 5 6 5 5 6 7 7
8 8 7 7 7 7 5 4 4 3 3 4 4 4 3 4 4 3 3 4 4 4 4 3 2 2 3 3 3 4 3 3 3 3 2 3 5 6 6 5 5 6 7 8
9 8 7 7 7 7 6 5 4 3 3 3 4 4 3 3 3 3 3 4 4 4 4 3 3 3 3 3 3 3 3 3 3 3 3 3 5 6 6 5 6 7 8 8
9 8 7 7 7 7 6 5 4 4 3 3 3 3 3 3 3 3 3 3 4 4 4 3 3 3 3 3 3 3 3 3 3 3 3 4 5 6 6 6 7 7 8 8
9 8 7 7 6 6 6 5 5 4 3 3 3 3 3 3 3 3 3 3 3 4 3 3 3 3 2 2 2 3 3 3 3 3 4 4 5 5 6 6 7 7 8 8
8 8 7 7 7 6 6 5 4 4 3 3 3 3 3 3 3 3 3 3 3 3 3 2 2 2 2 2 2 2 2 3 3 3 3 4 4 5 5 6 6 6 7 7
7 7 7 7 7 7 6 5 4 4 3 3 3 3 3 3 3 3 3 3 3 3 2 2 1 1 1 1 1 2 2 2 2 2 3 3 4 4 5 5 6 6 6 6
7 7 7 7 7 6 5 4 4 4 3 3 3 3 3 3 3 3 3 2 2 2 2 1 1 1 1 1 1 1 1 2 2 2 3 3 4 4 5 5 5 5 6 6
7 7 8 7 6 5 4 3 4 4 3 3 3 2 2 2 2 2 2 2 2 2 2 1 1 1 2 2 1 1 1 2 2 2 3 3 4 4 4 4 5 5 5 5
8 8 7 6 5 5 4 4 4 4 3 3 2 2 2 1 1 1 2 2 2 2 2 2 2 2 2 2 1 1 2 2 2 2 3 3 3 4 4 4 4 4 4 4
7 7 6 4 4 4 4 4 4 4 3 2 1 1 1 1 0 0 1 1 1 1 1 2 2 2 2 1 1 1 2 2 2 2 3 3 3 3 3 3 3 3 3 4
7 6 4 3 3 3 3 3 3 3 2 2 1 1 0 0 0 0 0 0 1 1 2 2 2 2 1 1 0 1 1 2 2 2 2 3 3 3 2 2 2 2 3 3
5 4 3 2 3 3 3 3 2 2 2 1 1 1 0 0 0 0 0 1 1 1 2 2 2 1 0 -0 -0 0 1 1 1 1 2 2 2 2 2 1 2 2 2 2
4 3 3 3 3 2 2 2 1 1 0 0 0 0 0 0 0 0 1 1 1 2 2 1 1 1 -0 -1 -1 -0 -0 0 0 1 1 1 1 1 1 1 1 1 1 1
4 4 3 2 2 2 1 1 0 -0 -1 -1 -0 -0 0 0 0 0 1 1 2 2 2 1 1 0 -0 -1 -1 -1 -1 -0 -0 -0 -0 0 0 0 0 0 0 0 0 1
4 3 3 2 1 1 -0 -1 -1 -1 -1 -1 -1 -0 -0 0 0 1 1 1 2 2 2 1 0 -0 -0 -1 -1 -1 -1 -0 -0 -0 -0 -0 -0 -0 -0 -0 -0 -0 0 0
4 3 3 2 1 -0 -1 -1 -1 -1 -1 -1 -1 -0 -0 0 1 1 2 2 2 2 1 0 -0 -0 -0 -0 -0 -0 -0 -0 0 0 1 1 0 0 0 0 0 -0 -0 -0
4 3 3 2 1 1 -0 -1 -1 -1 -1 -1 -0 -0 0 1 1 2 2 2 2 1 1 0 -0 -1 -0 -0 -0 0 0 1 1 2 2 2 1 1 1 0 0 0 -0 -0
3 3 3 3 2 2 1 -0 -1 -1 -1 -1 -0 0 1 2 2 3 3 2 1 1 0 -0 -1 -1 -1 -0 0 1 1 2 2 2 3 2 2 2 1 1 0 0 -0 -0